Location: Go�ngahuizen
(53.0821°N, 5.8849°E)
Time: 23:44:41
(UTC+00:00)

STARLINK-1224 - Pass Details

Date: 09 April 2020
Orbit: 549 x 551 km, 53.0° (Epoch: 03 June)

Event Time Altitude Azimuth Distance (km) Brightness Sun altitude
Rises 19:00:51 0° 281° (W) 2,729 9.4 -5.7°
Reaches altitude 10° 19:03:05 10° 279° (W) 1,834 7.9 -6.0°
Maximum altitude 19:07:15 74° 195° (SSW) 580 3.7 -6.6°
Drops below altitude 10° 19:11:24 10° 111° (ESE) 1,830 5.6 -7.2°
Enters shadow 19:11:33 - 111° (ESE) 1,891 5.7 -7.2°
